Terug naar catalogus

STARLINK-36713

ActiefCommunicatieSSO
NORAD 67701·PAYLOAD·🇺🇸 United States

Gelanceerd Feb 7, 2026 vanaf Vandenberg Space Force Base

Loading…

Volgende Passages (komende 24 uur)

TLE

VersSource: CelesTrak SupGP

Epoch: Sep 14, 2026, 21:27 UTC

1 67701C 26025J   26257.89423611 -.00026029  00000+0 -80789-3 0  2574
2 67701  97.2855   7.8304 0001603 101.6293 266.3980 15.33457056    17

Volg STARLINK-36713 in realtime met AllMySat

Download on the App Store